Weather in Sukkulovo

Russia / Republic of Bashkortostan     54°13′55″N   53°43′59″E
temp.,
°C
wind,
m/s
gust,
m/s
humid.,
%
clouds,
%
prec.,
mm/h
press.,
hPa
HPBL,
m
21 january, thu
thu2123:00−23sw4898100 0.1 1019226
02:00−23sw479899 0.1 1019190
05:00−23sw479999 0.3 1019169
08:00−22sw4898100 0.1 1019195
11:00−21sw5898100 0.5 1020255
14:00−19sw5997100 0.4 1020296
17:00−18sw5997100 0.6 1018292
20:00−17sw51096100 0.5 1019334
22 january, fri
fri2223:00−16sw5996100 1.0 1018302
02:00−15sw4896100 0.8 1018319
05:00−14sw4796100 1.2 1018242
08:00−14sw3796100 0.5 1018232
11:00−14sw3696100 0.9 1019229
14:00−12wsw359499 0.2 1020352
17:00−13w2496100 0.3 1021128
20:00−17wnw1299100 0.1 102320
23 january, sat
sat2323:00−20ne1110099 0.1 102520
02:00−21se1210093 0.0 102620
05:00−18sse239691 0.0 102755
08:00−18sse369599 0.0 1028141
11:00−15s5109499 0.1 1028285
14:00−13s71294100 0.4 1027385
17:00−12s71393100 0.9 1026395
20:00−11ssw71394100 0.7 1025385
24 january, sun
sun2423:00−10ssw61195100 1.7 1024296
02:00−8ssw51195100 1.0 1024294
05:00−3ssw5997100 1.3 1023292
08:00+1sw511100100 0.6 1023406
11:00+1sw61199100 0.8 1024553
14:000sw61097100 0.1 1025526
17:00−1sw71297100 0.3 1025479
20:000sw81397100 0.5 1027648
25 january, mon
mon2523:00−1sw61296100 0.8 1027610
02:00−1sw71394100 0.0 1028596
05:00−2sw71395100 0.0 1028551
08:00−1sw61196100 0.0 1029635
11:00−2ssw71193100 0.1 1030575
14:00−2ssw61194100 0.0 1030521
17:00−3s5109498 0.0 1029478
20:00−5s6129597 0.0 1029472